This demonstration page uses our WeatherBlox Daily Observations layout. Learn more.

Left ArrowRight Arrow

Hourly Observations for October 1, 2017

Temp ( °F °C ) Dew Point ( °F °C ) Humidity (%) Winds ( mph kmh ) Pressure ( in mb ) Visibility ( mi km ) Precip ( " mm )
12:14 am 00:14 Clear 52 11 45 7 77 77 E 8 13 30.33 1027 10 16.0934 N/A
12:34 am 00:34 Clear 52 11 45 7 77 77 E 7 11 30.33 1027 10 16.0934 N/A
12:54 am 00:54 Clear 50 10 45 7 82 82 E 8 13 30.33 1027 10 16.0934 N/A
1:14 am 01:14 Clear 50 10 45 7 82 82 E 7 11 30.33 1027 10 16.0934 N/A
1:34 am 01:34 Clear 48 9 45 7 87 87 E 8 13 30.33 1027 10 16.0934 N/A
1:54 am 01:54 Clear 48 9 45 7 87 87 E 5 7 30.33 1027 10 16.0934 N/A
2:13 am 02:13 Clear 46 8 45 7 93 93 E 7 11 30.33 1027 10 16.0934 N/A
2:34 am 02:34 Clear 46 8 45 7 93 93 E 5 7 30.33 1027 10 16.0934 N/A
2:54 am 02:54 Clear 46 8 45 7 93 93 ESE 3 6 30.33 1027 10 16.0934 N/A
3:13 am 03:13 Clear 46 8 45 7 93 93 E 5 7 30.33 1027 10 16.0934 N/A
3:34 am 03:34 Clear 46 8 43 6 87 87 E 5 7 30.3 1026 10 16.0934 N/A
3:54 am 03:54 Clear 45 7 43 6 93 93 E 3 6 30.3 1026 10 16.0934 N/A
4:13 am 04:13 Clear 41 5 41 5 100 100 NNW 3 6 30.36 1028 10 16.0934 N/A
4:34 am 04:34 Clear 39 4 39 4 100 100 NE 5 7 30.36 1028 10 16.0934 N/A
4:54 am 04:54 Clear 39 4 39 4 100 100 E 3 6 30.33 1027 10 16.0934 N/A
5:14 am 05:14 Clear 39 4 39 4 100 100 N N/A 30.33 1027 10 16.0934 N/A
5:34 am 05:34 Clear 39 4 39 4 100 100 E 5 7 30.33 1027 10 16.0934 N/A
5:54 am 05:54 Clear 41 5 41 5 100 100 E 7 11 30.33 1027 10 16.0934 N/A
6:14 am 06:14 Clear 43 6 41 5 93 93 E 6 9 30.3 1026 10 16.0934 N/A
6:34 am 06:34 Clear 39 4 39 4 100 100 E 7 11 30.33 1027 10 16.0934 N/A
6:54 am 06:54 Clear 41 5 41 5 100 100 E 3 6 30.33 1027 10 16.0934 N/A
7:14 am 07:14 Clear 39 4 39 4 100 100 N N/A 30.33 1027 10 16.0934 N/A
7:34 am 07:34 Clear 39 4 39 4 100 100 ENE 3 6 30.33 1027 10 16.0934 N/A
7:54 am 07:54 Sunny 39 4 39 4 100 100 N N/A 30.33 1027 10 16.0934 N/A
8:14 am 08:14 Sunny 39 4 39 4 100 100 E 3 6 30.33 1027 10 16.0934 N/A
8:34 am 08:34 Sunny 46 8 45 7 93 93 E 8 13 30.3 1026 10 16.0934 N/A
8:54 am 08:54 Sunny 48 9 45 7 87 87 E 9 15 30.3 1026 10 16.0934 N/A
9:14 am 09:14 Sunny 52 11 46 8 82 82 E 9 15 30.3 1026 10 16.0934 N/A
9:34 am 09:34 Sunny 54 12 46 8 77 77 ESE 8 13 30.3 1026 10 16.0934 N/A
9:54 am 09:54 Sunny 55 13 46 8 72 72 ESE 8 13 30.3 1026 10 16.0934 N/A
10:14 am 10:14 Sunny 57 14 46 8 67 67 SE 13 20 30.3 1026 10 16.0934 N/A
10:34 am 10:34 Sunny 59 15 46 8 63 63 ESE 10 17 30.27 1025 10 16.0934 N/A
10:54 am 10:54 Sunny 59 15 46 8 63 63 ESE 13 20 30.27 1025 10 16.0934 N/A
11:14 am 11:14 Sunny 61 16 46 8 59 59 SE 9 15 30.27 1025 10 16.0934 N/A
11:34 am 11:34 Sunny 61 16 46 8 59 59 SE 12 19 30.24 1024 10 16.0934 N/A
11:54 am 11:54 Sunny 63 17 46 8 56 56 SE 7 11 30.24 1024 10 16.0934 N/A
12:14 pm 12:14 Sunny 64 18 46 8 52 52 ESE 12 19 30.24 1024 10 16.0934 N/A
12:34 pm 12:34 Sunny 64 18 46 8 52 52 SSE 8 13 30.24 1024 10 16.0934 N/A
12:54 pm 12:54 Sunny 66 19 46 8 49 49 ESE 9 15 30.24 1024 10 16.0934 N/A
1:14 pm 13:14 Sunny 66 19 46 8 49 49 SE 6 9 30.24 1024 10 16.0934 N/A
1:34 pm 13:34 Sunny 64 18 46 8 52 52 SE 6 9 30.21 1023 10 16.0934 N/A
1:54 pm 13:54 Sunny 66 19 46 8 49 49 ESE 6 9 30.21 1023 10 16.0934 N/A
2:14 pm 14:14 Sunny 68 20 46 8 46 46 E 7 11 30.18 1022 10 16.0934 N/A
2:34 pm 14:34 Sunny 70 21 48 9 46 46 ESE 7 11 30.18 1022 10 16.0934 N/A
2:53 pm 14:53 Sunny 72 22 48 9 44 44 E 8 13 30.18 1022 10 16.0934 N/A
3:14 pm 15:14 Sunny 70 21 48 9 46 46 SSE 8 13 30.18 1022 10 16.0934 N/A
3:34 pm 15:34 Sunny 70 21 48 9 46 46 S 6 9 30.18 1022 10 16.0934 N/A
3:53 pm 15:53 Sunny 72 22 48 9 44 44 SSE 7 11 30.18 1022 10 16.0934 N/A
4:14 pm 16:14 Sunny 72 22 48 9 44 44 SE 6 9 30.18 1022 10 16.0934 N/A
4:34 pm 16:34 Sunny 72 22 48 9 44 44 SE 8 13 30.15 1021 10 16.0934 N/A
4:54 pm 16:54 Sunny 72 22 50 10 47 47 SE 8 13 30.18 1022 10 16.0934 N/A
5:14 pm 17:14 Sunny 72 22 50 10 47 47 SSE 9 15 30.18 1022 10 16.0934 N/A
5:34 pm 17:34 Sunny 72 22 50 10 47 47 ESE 8 13 30.18 1022 10 16.0934 N/A
5:53 pm 17:53 Sunny 70 21 50 10 50 50 SE 8 13 30.18 1022 10 16.0934 N/A
6:14 pm 18:14 Sunny 72 22 52 11 50 50 SE 8 13 30.18 1022 10 16.0934 N/A
6:34 pm 18:34 Sunny 70 21 50 10 50 50 ESE 9 15 30.18 1022 10 16.0934 N/A
6:53 pm 18:53 Sunny 70 21 50 10 50 50 SE 5 7 30.18 1022 10 16.0934 N/A
7:14 pm 19:14 Sunny 66 19 50 10 56 56 SE 5 7 30.18 1022 10 16.0934 N/A
7:34 pm 19:34 Clear 64 18 50 10 60 60 SE 3 6 30.18 1022 10 16.0934 N/A
7:53 pm 19:53 Clear 61 16 50 10 68 68 SE 3 6 30.18 1022 10 16.0934 N/A
8:14 pm 20:14 Clear 59 15 50 10 72 72 ESE 5 7 30.18 1022 10 16.0934 N/A
8:34 pm 20:34 Clear 59 15 50 10 72 72 SE 5 7 30.18 1022 10 16.0934 N/A
8:54 pm 20:54 Clear 57 14 50 10 77 77 ESE 3 6 30.18 1022 10 16.0934 N/A
9:14 pm 21:14 Clear 57 14 50 10 77 77 ESE 6 9 30.18 1022 10 16.0934 N/A
9:34 pm 21:34 Clear 57 14 50 10 77 77 SE 6 9 30.18 1022 10 16.0934 N/A
9:54 pm 21:54 Clear 57 14 50 10 77 77 SE 5 7 30.18 1022 10 16.0934 N/A
10:14 pm 22:14 Clear 57 14 50 10 77 77 SE 6 9 30.18 1022 10 16.0934 N/A
10:34 pm 22:34 Clear 55 13 50 10 82 82 SE 6 9 30.21 1023 10 16.0934 N/A
10:54 pm 22:54 Clear 57 14 52 11 82 82 SE 6 9 30.18 1022 10 16.0934 N/A
11:14 pm 23:14 Clear 57 14 52 11 82 82 SE 6 9 30.18 1022 10 16.0934 N/A
11:34 pm 23:34 Clear 57 14 52 11 82 82 SE 5 7 30.18 1022 10 16.0934 N/A
11:54 pm 23:54 Clear 55 13 52 11 88 88 SSE 5 7 30.21 1023 10 16.0934 N/A

Powered by AerisWeather